Location: Newark
(29.9790°N, 31.1340°E)
Time: 20:11:07
(UTC+00:00)

Vanguard 3 - Pass Details

Date: 22 January 2020
Orbit: 508 x 3263 km, 33.3° (Epoch: 17 February)

Event Time Altitude Azimuth Distance (km) Brightness Sun altitude
Rises 15:10:52 0° 235° (SW) 6,882 14.2 1.7°
Reaches altitude 10° 15:15:14 10° 234° (SW) 6,035 13.5 0.8°
Maximum altitude 15:35:09 73° 154° (SSE) 3,229 10.2 -3.2°
Drops below altitude 10° 15:51:19 10° 74° (ENE) 5,050 10.5 -6.5°
Enters shadow 15:52:13 - 73° (ENE) 5,240 10.6 -6.7°
